• Join FlightAware (Why Join?)
  • Login
  • US Flag GB Flag 
08:03 EST


 

Airport Tracker/Info


-or-


 

Live Flight TrackerFlight Track Log ✈ N23607 ✈ 26-Apr-2013 ✈ KAID - KSKY

Flight Track Log - Related Links

Times and Time Zones

All times are in EDT time to prevent confusion due to time zone crossing. See the N23607 flight status page for this flight to view local times or setup timezone preferences in your user account.

Time Position Orientation Groundspeed Altitude Reporting Facility
EDT Latitude Longitude Course Direction KTS MPH feet Rate Location/Type
10:45 40.1000 -85.5833 143° Southeast 100 115 1,700  Level Indianapolis TRACON
10:45 40.0833 -85.5667 143° Southeast 106 122 2,400 1,200 Climbing Indianapolis TRACON
10:46 40.0667 -85.5333 123° Southeast 112 129 3,500 1,080 Climbing Indianapolis TRACON
10:47 40.0692 -85.5261 66° East 105 121 3,900 300 Climbing Chicago Center
10:48 40.0869 -85.4806 63° Northeast 133 153 4,000 180 Climbing Chicago Center
10:49 40.1108 -85.4347 56° Northeast 148 170 4,300 300 Climbing Chicago Center
10:50 40.1392 -85.3994 44° Northeast 145 167 4,700 420 Climbing Chicago Center
10:52 40.2156 -85.3906 North 138 159 5,700 480 Climbing Indianapolis Center
10:53 40.2433 -85.3625 38° Northeast 133 153 6,300 480 Climbing Indianapolis Center
10:54 40.2586 -85.3203 65° Northeast 127 146 6,800 300 Climbing Indianapolis Center
10:55 40.2781 -85.2747 61° Northeast 139 160 7,000 120 Climbing Indianapolis Center
10:56 40.3075 -85.2150 57° Northeast 162 186 7,100  Climbing Indianapolis Center
10:57 40.3328 -85.1639 57° Northeast 166 191 7,100  Level Indianapolis Center
10:58 40.3572 -85.1111 59° Northeast 167 192 7,100  Level Indianapolis Center
10:59 40.3814 -85.0597 58° Northeast 166 191 7,100  Level Indianapolis Center
11:00 40.4061 -85.0064 59° Northeast 168 193 7,100  Level Indianapolis Center
11:01 40.4306 -84.9550 58° Northeast 167 192 7,100  Level Indianapolis Center
11:02 40.4539 -84.9028 60° Northeast 168 193 7,100  Level Indianapolis Center
11:03 40.4814 -84.8417 59° Northeast 166 191 7,100  Level Indianapolis Center
11:04 40.5050 -84.7894 59° Northeast 166 191 7,100  Level Indianapolis Center
11:05 40.5294 -84.7353 59° Northeast 168 193 7,100  Level Indianapolis Center
11:06 40.5531 -84.6831 59° Northeast 167 192 7,100  Level Indianapolis Center
11:07 40.5775 -84.6300 59° Northeast 167 192 7,100  Level Indianapolis Center
11:08 40.6022 -84.5758 59° Northeast 168 193 7,100  Level Indianapolis Center
11:09 40.6264 -84.5244 58° Northeast 168 193 7,100  Level Indianapolis Center
11:10 40.6494 -84.4708 60° Northeast 167 192 7,100  Level Indianapolis Center
11:11 40.6736 -84.4181 59° Northeast 167 192 7,100  Level Indianapolis Center
11:12 40.7017 -84.3544 60° Northeast 168 193 7,100  Level Indianapolis Center
11:13 40.7258 -84.3014 59° Northeast 168 193 7,100  Level Indianapolis Center
11:14 40.7494 -84.2475 60° Northeast 168 193 7,100  Level Indianapolis Center
11:16 40.7725 -84.1942 60° Northeast 167 192 7,100  Level Indianapolis Center
11:17 40.7961 -84.1394 60° Northeast 168 193 7,100  Level Indianapolis Center
11:18 40.8211 -84.0861 58° Northeast 169 194 7,100  Level Indianapolis Center
11:19 40.8450 -84.0311 60° Northeast 169 194 7,100  Level Indianapolis Center
11:20 40.8700 -83.9761 59° Northeast 171 197 7,100  Level Indianapolis Center
11:21 40.8936 -83.9206 61° Northeast 172 198 7,100  Level Indianapolis Center
11:22 40.9231 -83.8578 58° Northeast 171 197 7,100  Level Indianapolis Center
11:23 40.9464 -83.8028 61° Northeast 170 196 7,100  Level Indianapolis Center
11:24 40.9700 -83.7467 61° Northeast 172 198 7,100  Level Indianapolis Center
11:25 40.9950 -83.6908 59° Northeast 173 199 7,100  Level Indianapolis Center
11:26 41.0192 -83.6369 59° Northeast 171 197 7,100  Level Indianapolis Center
11:27 41.0433 -83.5822 60° Northeast 170 196 7,100  Level Indianapolis Center
11:28 41.0678 -83.5258 60° Northeast 172 198 7,100  Level Indianapolis Center